Starlink 32862

operational
NORAD ID: 62864 Int'l Des: 2025-022 Owner: SPXS Country: US Constellation: starlink
LEOCIRCULAR

About Starlink 32862

Description loading...

Live Position

Loading 3D Globe...

Upcoming Passes

Altitude History

Altitude vs Time

uPlot chart will show altitude changes over time

Two-Line Element Set

1 62864U 25022L 25308.39458147 .00023951 00000-0 81824-3 0 9992
2 62864 53.1610 351.8288 0001368 82.5671 277.5485 15.30198172 42715
Epoch: Nov 4, 2025 • Age: 12 hours

Current Status

Altitude 475.4 km
Velocity 7.63 km/s
Sub-Earth Point 7.06°N, 162.09°E
Launch Date Feb 2, 2025
Age 0.7 years
Type internet

Technical Details

Classification Payload
Mass 730.00 kg
Dry Mass 700.00 kg
Total Mass 730.00 kg
Length 0.30 m
Diameter 4.10 m
Span 29.00 m
Shape Box + pan
Manufacturer SPXS
Bus Type Starlink V2M
Phase Status In Orbit
Owner/State SPXS/US

Large Constellations

Loading constellations...